ICEYE-X13 (48916 NORAD) Tracking and Keplerian Element Data

This shows tracking and keplerian element data for the satellite.

Feedback or suggestion? Click here.




ElementValue
Catalog48916
NameICEYE-X13
Epoch Orbit20022
Epoch Day35.20842694
Epoch Year2025
RAAN189.6376
Inclination97.6448
Eccentricity0.0003135
Argument of Perigee16.671
Mean Anonmoly343.464
Mean Motion15.45499252
Decay Rate0.00055384
L11 48916U 21059AP 25035.20842694 .00055384 00000+0 11501-2 0 9999
L22 48916 97.6448 189.6376 0003135 16.6710 343.4640 15.45499252200227



Live tracking and technical data element details for ICEYE-X13 (NORAD 48916). ICEYE-X13 can be tracked NOW for your location showing map with azimuth and elevation plus other details from your city location.







IsCatalogInMostPopularTable: catalog: 48916, numindb: 113
Update: records affected: 1



GetName: 48916 ICEYE-X13

Hit Count: updated at: Wed, 18 Jun 2025 06:27:48 GMT